{"data":{"norad_id":66033,"epoch":"2026-09-20T14:23:13.053696Z","epoch_age_seconds":131745,"freshness":"FRESH","line1":"1 66033U 25233A   26263.59945664  .00000072  00000+0  92518-4 0  9997","line2":"2 66033  89.0055  33.5443 0001738  93.7914 266.3436 13.51029601 46065","mean_motion":13.51029601,"eccentricity":0.0001738,"inclination_deg":89.0055,"raan_deg":33.5443,"arg_perigee_deg":93.7914,"mean_anomaly_deg":266.3436,"bstar":9.2518e-5,"rev_number":4606,"period_min":106.58537747316,"perigee_km":1067.1785925415,"apogee_km":1069.7670341126,"semimajor_km":7446.609813327,"source":"CELESTRAK","updated_at":"2026-09-21T09:00:15.731406Z"}}